Regional Weather Roundup
Issued by NWS

Home | Current Version | Previous Version | Text Only | Print | Product List | Glossary On
Versions: 1 2 3 4 5 6 7 8 9 10 11 12 13 14 15 16 17 18 19 20 21 22 23 24 25 26 27 28 29 30 31 32 33 34 35 36 37 38 39 40 41 42 43 44 45 46 47 48 49 50
000
ASUS44 KJAN 111910
RWRMS

MISSISSIPPI HOURLY WEATHER ROUNDUP
NATIONAL WEATHER SERVICE JACKSON MS
100 PM CST THU FEB 11 2016

NOTE: "FAIR: INDICATES FEW OR NO CLOUDS BELOW 12,000 FEET WITH NO
SIGNIFICANT WEATHER AND/OR OBSTRUCTIONS TO VISIBILITY.

MSZ001>002-007>008-010>013-018>021-025>028-034>036-112000-
NORTHWEST MISSISSIPPI

CITY           SKY/WX    TMP DP  RH WIND       PRES   REMARKS
CLEVELAND      FAIR      56  38  50 N9        30.12S
GREENWOOD      SUNNY     63  39  41 VRB6      30.11F
GREENVILLE     SUNNY     62  39  42 N10       30.11S
OLIVE BRANCH   MOSUNNY   46  25  42 NE10      30.16F
OXFORD         FAIR      54  27  35 E12       30.15F
TUNICA         CLEAR     50  28  43 N12G17    30.16S
$$

MSZ003>006-009-014>017-022>024-029>033-037>039-112000-
NORTHEAST MISSISSIPPI

CITY           SKY/WX    TMP DP  RH WIND       PRES   REMARKS
COLUMBUS AFB   SUNNY     58  37  46 N9        30.11F
CORINTH        FAIR      52  19  28 NE8       30.15F
GOLDN TRIANGLE SUNNY     63  37  39 N7        30.11F
STARKVILLE     FAIR      63  37  39 NW6       30.10F
TUPELO         SUNNY     53  25  33 NE7       30.15F
$$

MSZ040-058-112000-
CENTRAL MISSISSIPPI

CITY           SKY/WX    TMP DP  RH WIND       PRES   REMARKS
JACKSON INTL   SUNNY     71  39  31 W10       30.08F
JACKSON HAWKNS SUNNY     70  39  32 W15G23    30.09F
MERIDIAN KEY   SUNNY     70  40  33 W9        30.08F
MERIDIAN NAS   SUNNY     68  39  34 SW10      30.09F
VICKSBURG      SUNNY     74  38  27 W8G18     30.09F
$$

MSZ059>079-112000-
SOUTH MISSISSIPPI

CITY           SKY/WX    TMP DP  RH WIND       PRES   REMARKS
BROOKHAVEN     FAIR      81  50  34 SW17      30.12F
HATTIESBURG    SUNNY     75  45  34 W16G22    30.12F
MCCOMB         SUNNY     74  48  39 SW15G22   30.12F
NATCHEZ        SUNNY     72  45  37 W17G23    30.12F
PINE BELT      SUNNY     73 N/A N/A SW15G22   30.11F
$$

MSZ080>082-112000-
COASTAL MISSISSIPPI

CITY           SKY/WX    TMP DP  RH WIND       PRES   REMARKS
BAY ST LOUIS   MOSUNNY   72  48  43 MISG      30.17F
BILOXI         SUNNY     67  57  69 SW15G24   30.15F
PASCAGOULA     SUNNY     70  55  59 SW14G21   30.17F
GULFPORT       SUNNY     71  53  52 W17G25    30.15F
$$



USA.gov is the U.S. government's official web portal to all federal, state and local government web resources and services.